{"data":{"norad_id":42920,"epoch":"2026-09-20T03:40:26.010048Z","epoch_age_seconds":51884,"freshness":"FRESH","line1":"1 42920U 17049A   26263.15307882  .00000052  00000+0  24215-4 0  9995","line2":"2 42920  98.2181 336.3174 0012167 146.3531 213.8439 14.50909033480449","mean_motion":14.50909033,"eccentricity":0.0012167,"inclination_deg":98.2181,"raan_deg":336.3174,"arg_perigee_deg":146.3531,"mean_anomaly_deg":213.8439,"bstar":2.4215e-5,"rev_number":48044,"period_min":99.248124261971,"perigee_km":714.04149221659,"apogee_km":731.32062287783,"semimajor_km":7100.8180575472,"source":"CELESTRAK","updated_at":"2026-09-20T09:00:33.970184Z"}}